INTELSAT 33E DEB, 61993

Orbit data source: Space-Track

INTELSAT 33E DEB, 61993 is space debris in GEO originally from a launch on Wed, 24 Aug 2016 UTC launched from the French Guiana (FRGUI). Debris objects in space refer to the collection of defunct objects orbiting the Earth. Examples of debris include non-operational satellites, rocket bodies, and fragments generated from explosions, collisions, or faulty payload assembly.

Not visible in the next 10 days
Identifier
61993, 2016-053K
Orbit
GEO
Country
Flag of UnknownUnknown / ITSO
Related business
Manufacturer
Boeing/ES
Mission
Spacecraft
Bus & Motor
Unknown
Mass
Unknown
Launch date (UTC)
2016-08-24 (9 years ago)
Launch vehicle
Unknown
Launch site
French Guiana (FRGUI)
Object type
Payload
Rocket body
Debris
Shape & HBR
Unknown
Radar Cross Section
RCS unknown

Expand to show TLE details & history
Last TLE update: 1 day ago

TLE from 1 day ago
0 INTELSAT 33E DEB
1 61993U 16053K   25258.76593764 -.00000335  00000-0  00000-0 0  9994
2 61993   0.7774  72.1501 0080681 314.9605 333.3076  1.01205370  3368
Epoch: 2025-09-15T18:22Z
TLE epoch observation values (Epoch: 2025-09-15T18:22:57.012Z)
Latitude
-0.7478°
Longitude
89.29808°
Altitude
35,224.11 km
Speed
3.107 km/s
True Right ascension
00h 00m 00s
True Declination
0° 44' 49"
Sunlit
Object was in full shadow at epoch
Visualization orbit readout
Latitude
Unknown
Longitude
Unknown
Altitude
Unknown
Speed
Unknown
Apparent Right ascension
Unknown
Apparent Declination
Unknown
Sunlit
N/A
Visualization observer readout
Local Sidereal Time
17:03:12
Azimuth
Unknown
Elevation
Unknown
Doppler factor
Unknown
Orbital elements
Apogee altitude
35,866.07 km
Perigee altitude
35,189.865 km
Semi-major axis
41,906.105 km
Eccentricity
0.00807
Inclination
0.7774°
RAAN
72.1501°
Arg. of periapsis
314.9605°
True anomaly
332.88853°
Mean anomaly
333.3076°
Eccentric anomaly
333.09844°
Mean motion
0.253 °/min
Orbital period
1,422.9 mins
BSTAR
0
Loading maneuver chart data...
Computing Atmospheric mass density...
Loading historical data...
Loading historical data...
Loading historical data...
Loading historical data...
Loading historical data...
Loading historical data...
Loading historical data...

Documentation

Showing up to 5 results
|